SCP
0 -0 -0 0 -0 -0 -0 0 0 0 0 0 0 0 0 0 0 0 0 0 0 0
-0 -0 -0 -0 -0 -0 -0 0 0 0 0 0 0 0 0 0 0 0 0 0 0 0
-0 -0 -0 -0 -0 -0 -0 -0 0 0 0 0 0 0 0 0 0 0 0 0 0 0
-0 -0 -0 -0 -0 -0 -0 -0 0 0 0 0 0 0 0 0 0 0 0 0 0 0
-0 0 -0 0 0 0 -0 -0 -0 0 0 0 0 0 0 0 0 0 0 0 0 0
-0 0 0 0 0 0 0 -0 0 0 0 0 0 0 0 0 0 0 0 0 0 0
0 0 0 0 0 0 0 0 0 0 0 0 0 0 0 0 0 0 0 0 0 0
0 0 0 0 0 0 0 0 0 0 0 0 0 0 0 0 0 0 0 0 0 0
0 0 0 0 0 0 0 0 0 0 0 0 0 0 0 0 0 0 0 0 0 0
0 0 0 0 0 0 0 0 0 0 0 0 0 0 0 0 0 0 0 0 0 0
-0 0 -0 -0 -0 -0 0 0 0 0 -0 0 0 0 0 0 0 0 0 0 0 0
0 0 0 -0 -0 0 0 -0 -0 -0 -0 -0 -0 0 0 -0 -0 -0 -0 -0 -0 -0
0 0 0 0 0 -0 -0 -0 -0 0 -0 -0 -0 -0 -0 -0 -0 -0 -0 -0 -0 0
-0 0 0 -0 -0 -0 -0 -0 -0 -0 -0 -0 -0 0 0 -0 0 0 0 0 -0 0
Wind_Speed_500mb
59 47 45 46 53 44 41 32 34 32 23 7 35 36 37 37 44 45 48 54 55 56
59 60 57 51 46 39 45 38 31 24 12 21 23 31 31 36 40 45 45 44 46 48
51 60 61 53 49 48 39 39 40 31 26 24 22 22 22 27 32 35 38 37 38 38
40 52 57 53 52 43 45 42 43 37 31 29 27 28 26 26 26 27 28 28 27 28
62 43 55 51 46 42 43 46 39 37 26 23 25 27 20 19 23 19 22 22 24 23
58 50 49 47 41 39 48 44 43 33 28 24 24 23 23 24 23 24 22 19 20 19
50 40 42 39 38 37 44 38 35 27 22 23 24 26 26 22 24 24 21 17 14 10
37 40 37 37 26 34 29 30 17 15 15 18 21 23 20 21 23 19 15 14 11 12
41 42 33 20 25 26 14 11 13 17 21 23 25 19 18 19 17 16 15 17 18 20
34 30 18 13 13 12 16 15 17 21 24 34 37 33 29 32 38 41 36 20 16 19
22 20 10 12 16 20 20 20 21 25 26 28 35 35 37 29 29 29 26 25 27 26
27 14 11 20 28 32 38 39 37 31 33 37 32 24 28 27 30 29 36 32 27 19
13 15 27 37 44 43 34 37 34 32 31 31 35 28 24 32 34 33 39 37 41 46
27 35 45 48 40 42 42 38 36 35 38 38 37 40 38 39 41 37 34 40 42 40
Wind_Direction_500mb
344 343 340 343 352 4 18 356 8 32 32 181 213 226 257 269 276 284 282 279 282 284
330 339 341 336 342 327 343 348 346 345 301 281 257 245 258 270 280 284 285 287 290 288
325 326 338 338 330 332 320 332 331 341 336 314 307 299 296 290 292 293 296 300 300 301
321 319 327 330 330 330 324 304 325 329 333 330 330 329 327 321 321 313 315 318 316 307
312 309 318 317 321 324 325 331 326 329 338 346 351 342 343 346 332 355 2 356 351 346
318 321 319 317 322 321 331 329 330 332 342 360 8 5 20 19 25 24 16 11 8 1
318 323 317 317 307 326 334 340 339 341 357 20 25 25 31 24 25 25 18 23 26 28
333 323 313 314 329 332 340 338 357 26 44 52 49 40 32 30 31 33 43 49 58 70
328 336 318 316 339 341 2 38 68 73 66 57 53 42 36 39 54 66 67 75 81 91
332 328 305 324 357 36 66 70 66 62 65 78 71 64 76 82 78 71 64 76 101 108
355 338 4 45 65 76 68 67 68 80 92 73 69 71 65 59 55 54 58 58 69 105
351 354 43 80 78 79 81 78 86 82 82 75 79 77 68 69 69 67 63 54 41 62
25 69 86 90 93 89 85 77 68 67 70 56 68 61 72 79 77 79 77 70 66 70
89 92 99 93 89 87 82 77 74 74 76 69 64 73 71 77 87 86 82 79 73 72
Wind_Speed_850mb
59 47 45 46 53 44 41 32 34 32 23 7 35 36 37 37 44 45 48 54 55 56
59 60 57 51 46 39 45 38 31 24 12 21 23 31 31 36 40 45 45 44 46 48
51 60 61 53 49 48 39 39 40 31 26 24 22 22 22 27 32 35 38 37 38 38
40 52 57 53 52 43 45 42 43 37 31 29 27 28 26 26 26 27 28 28 27 28
62 43 55 51 46 42 43 46 39 37 26 23 25 27 20 19 23 19 22 22 24 23
58 50 49 47 41 39 48 44 43 33 28 24 24 23 23 24 23 24 22 19 20 19
50 40 42 39 38 37 44 38 35 27 22 23 24 26 26 22 24 24 21 17 14 10
37 40 37 37 26 34 29 30 17 15 15 18 21 23 20 21 23 19 15 14 11 12
41 42 33 20 25 26 14 11 13 17 21 23 25 19 18 19 17 16 15 17 18 20
34 30 18 13 13 12 16 15 17 21 24 34 37 33 29 32 38 41 36 20 16 19
22 20 10 12 16 20 20 20 21 25 26 28 35 35 37 29 29 29 26 25 27 26
27 14 11 20 28 32 38 39 37 31 33 37 32 24 28 27 30 29 36 32 27 19
13 15 27 37 44 43 34 37 34 32 31 31 35 28 24 32 34 33 39 37 41 46
27 35 45 48 40 42 42 38 36 35 38 38 37 40 38 39 41 37 34 40 42 40
Wind_Direction_850mb
344 343 340 343 352 4 18 356 8 32 32 181 213 226 257 269 276 284 282 279 282 284
330 339 341 336 342 327 343 348 346 345 301 281 257 245 258 270 280 284 285 287 290 288
325 326 338 338 330 332 320 332 331 341 336 314 307 299 296 290 292 293 296 300 300 301
321 319 327 330 330 330 324 304 325 329 333 330 330 329 327 321 321 313 315 318 316 307
312 309 318 317 321 324 325 331 326 329 338 346 351 342 343 346 332 355 2 356 351 346
318 321 319 317 322 321 331 329 330 332 342 360 8 5 20 19 25 24 16 11 8 1
318 323 317 317 307 326 334 340 339 341 357 20 25 25 31 24 25 25 18 23 26 28
333 323 313 314 329 332 340 338 357 26 44 52 49 40 32 30 31 33 43 49 58 70
328 336 318 316 339 341 2 38 68 73 66 57 53 42 36 39 54 66 67 75 81 91
332 328 305 324 357 36 66 70 66 62 65 78 71 64 76 82 78 71 64 76 101 108
355 338 4 45 65 76 68 67 68 80 92 73 69 71 65 59 55 54 58 58 69 105
351 354 43 80 78 79 81 78 86 82 82 75 79 77 68 69 69 67 63 54 41 62
25 69 86 90 93 89 85 77 68 67 70 56 68 61 72 79 77 79 77 70 66 70
89 92 99 93 89 87 82 77 74 74 76 69 64 73 71 77 87 86 82 79 73 72